リネ彗星

P/2011 W2 ( Rinner )

English version
Home page
Updated on August 8, 2015

---------------------------------------------------------------------

・ プロフィール

発見日 2011年11月28日
発見光度 17.9等
発見者 Claudine Rinner (Ottmarsheim, France)

・ 写真集

・ 軌道要素

Epoch 2011 Nov. 15.0 TT = JDT 2455880.5
T 2011 Nov. 6.18899 TT                                  MPC
q   2.3030550            (2000.0)            P               Q
n   0.13311412     Peri.  221.05869     -0.03877397     -0.98146794
a   3.7988601      Node   232.01739     +0.96770152     +0.00993525
e   0.3937511      Incl.   13.77389     +0.24909906     -0.19136870
P   7.40
From 585 observations 2011 Nov. 28-2012 Mar. 24, mean residual 0".5.

・ 光度変化

        m1 = 5.0 + 5 logΔ + 30.0 log r

---------------------------------------------------------------------

軌道要素はM.P.E.C. 2012-U109に掲載されたものです。
光度グラフはComet for Windowsで作成したものです。

---------------------------------------------------------------------

Copyright(C) Seiichi Yoshida (comet@aerith.net). All rights reserved.